Home   Weather   Kuwait City   Past weeks
Flag for Kuwait

Past Weather in Kuwait City, Kuwait — Yesterday and Last 2 Weeks

Now
97 °F

Sunny.


Feels Like: 92 °F
Forecast: 94 / 77 °F
Wind: 6 mph from Southwest

Location: Kuwait International Airport

Current Time: Oct 22, 2019 at 5:43:34 pm

Latest Report: Oct 22, 2019 at 5:00 pm


Visibility: 10 mi

Pressure: 29.77 "Hg

Humidity: 13%

Dew Point: 37 °F

Location of Kuwait CityLocation

Past Weather in Kuwait City — Graph

°F

Kuwait City Temperature Yesterday

Maximum temperature yesterday: 97 °F (at 12:00 pm)
Minimum temperature yesterday: 81 °F (at 6:00 am)
Average temperature yesterday: 88 °F

High & Low Weather Summary for the Past Weeks

 TemperatureHumidityPressure
High106 °F (Oct 10, 1:00 pm)100% (Oct 13, 4:00 am)30.01 "Hg (Oct 13, 4:00 am)
Low68 °F (Oct 17, 5:00 am)11% (Oct 22, 3:00 pm)29.74 "Hg (Oct 22, 3:00 pm)
Average88 °F47%29.90 "Hg
* Reported Oct 7 5:00 pm — Oct 22 4:00 pm, Kuwait City. Weather by CustomWeather, © 2019

Note: Actual official high and low records may vary slightly from our data, if they occured in-between our weather recording intervals... More about our weather records

Advertising

Kuwait City Weather History for the Previous 24 Hours

Scroll right to see more
 ConditionsComfort  
Time TempWeatherWind HumidityBarometerVisibility
4:00 pm
Tue, Oct 22
102 °FSunny.8 mph11%29.74 "Hg10 mi
3:00 pm104 °FSunny.8 mph11%29.74 "Hg10 mi
2:00 pm104 °FSunny.15 mph12%29.77 "Hg10 mi
1:00 pm102 °FSunny.15 mph12%29.77 "Hg10 mi
12:00 pm100 °FSunny.16 mph16%29.80 "Hg10 mi
11:00 am99 °FSunny.18 mph18%29.83 "Hg5 mi
10:00 am97 °FLow level haze.21 mph20%29.86 "Hg4 mi
9:00 am90 °FClear.13 mph31%29.86 "Hg4 mi
8:00 am84 °FClear.10 mph45%29.86 "Hg5 mi
7:00 am77 °FClear.8 mph69%29.83 "Hg4 mi
6:00 am73 °FClear.7 mph74%29.83 "Hg4 mi
5:00 am79 °FClear.7 mph61%29.83 "Hg10 mi
4:00 am79 °FClear.8 mph70%29.80 "Hg10 mi
3:00 am77 °FClear.7 mph79%29.80 "Hg10 mi
2:00 am77 °FClear.3 mph79%29.80 "Hg10 mi
1:00 am77 °FClear.6 mph79%29.80 "Hg10 mi
12:00 am79 °FClear.7 mph70%29.80 "Hg10 mi
11:00 pm
Mon, Oct 21
81 °FClear.5 mph62%29.83 "Hg10 mi
10:00 pm86 °FClear.8 mph55%29.83 "Hg10 mi
9:00 pm88 °FClear.10 mph55%29.83 "Hg10 mi
8:00 pm88 °FClear.9 mph49%29.86 "Hg10 mi
7:00 pm88 °FClear.9 mph46%29.86 "Hg10 mi
6:00 pm90 °FClear.10 mph46%29.86 "Hg10 mi
5:00 pm90 °FClear.13 mph41%29.86 "Hg5 mi
Weather by CustomWeather, © 2019

See weather overview